FW4267 Weather Reports


Display with metric or nautical units.
time (UTC)temp
F
wind
direction
speed
MPH
gust
MPH
rain 1hr
in
rain 24hr
in
rain mn
in
humidity
%
barometer
mb
20260508012925 50 276 0.0 0.0 0.00 0.00 0.00 93 1010.5
20260508012424 50 276 0.0 0.0 0.00 0.00 0.00 93 1010.5
20260508012235 50 276 0.0 0.0 0.00 0.00 0.00 94 1010.5
20260508011424 50 276 0.0 0.0 0.00 0.00 0.00 93 1010.6
20260508010922 50 276 0.0 0.0 0.00 0.00 0.00 92 1010.6
20260508010422 50 276 0.0 1.0 0.00 0.00 0.00 93 1010.6
20260508005921 50 276 0.0 1.0 0.00 0.00 0.00 93 1010.7
20260508005554 50 276 0.0 1.0 0.00 0.00 0.00 94 1010.7
20260508005520 50 276 0.0 1.0 0.00 0.00 0.00 93 1010.7
20260508004423 50 276 0.0 1.0 0.00 0.00 0.00 94 1010.6
20260508003922 50 276 0.0 1.0 0.00 0.00 0.00 94 1010.7
20260508003422 50 276 1.0 1.0 0.00 0.00 0.00 94 1010.7
20260508002921 50 276 1.0 1.0 0.00 0.00 0.00 94 1010.7
20260508002421 49 276 1.0 1.0 0.00 0.00 0.00 94 1010.8
20260508001922 49 276 1.0 1.0 0.00 0.00 0.00 94 1010.8
20260508001420 49 276 0.0 2.0 0.00 0.00 0.00 94 1011.0
20260508000920 49 276 0.0 2.0 0.00 0.00 0.00 93 1010.9
20260508000420 49 278 1.0 2.0 0.00 0.00 0.00 92 1011.0
20260508000234 50 271 1.0 2.0 0.00 0.00 0.00 93 1011.0
20260507235420 49 281 2.0 2.0 0.00 0.00 0.00 93 1010.9
20260507234921 50 286 1.0 2.0 0.00 0.00 0.00 93 1011.0
20260507234420 50 288 1.0 2.0 0.00 0.00 0.00 93 1010.9
20260507233919 50 288 1.0 2.0 0.00 0.00 0.00 92 1010.9
20260507233420 50 288 1.0 1.0 0.00 0.00 0.00 92 1010.9
20260507232932 50 288 1.0 1.0 0.00 0.00 0.00 92 1010.9
20260507232730 50 288 1.0 1.0 0.00 0.00 0.00 92 1011.0
20260507231918 50 288 1.0 1.0 0.00 0.00 0.00 91 1011.0
20260507231420 51 288 1.0 1.0 0.00 0.00 0.00 91 1011.2
20260507230920 51 288 1.0 1.0 0.00 0.00 0.00 91 1011.2
20260507230420 51 288 1.0 1.0 0.00 0.00 0.00 91 1011.3
20260507225918 51 288 0.0 1.0 0.00 0.00 0.00 92 1011.3
20260507225432 51 288 1.0 2.0 0.00 0.00 0.00 91 1011.3
20260507224920 51 288 1.0 2.0 0.00 0.00 0.00 90 1011.3
20260507224419 51 288 1.0 1.0 0.00 0.00 0.00 90 1011.4
20260507223916 52 288 1.0 1.0 0.00 0.00 0.00 90 1011.4
20260507223416 52 288 1.0 1.0 0.00 0.00 0.00 90 1011.4
20260507222919 52 288 1.0 1.0 0.00 0.00 0.00 89 1011.5
20260507222419 52 288 1.0 1.0 0.00 0.00 0.00 89 1011.4
20260507221917 52 288 1.0 1.0 0.00 0.00 0.00 88 1011.5
20260507221418 52 288 1.0 1.0 0.00 0.00 0.00 88 1011.3
20260507220917 52 288 1.0 2.0 0.00 0.00 0.00 89 1011.3
20260507220418 52 288 1.0 2.0 0.00 0.00 0.00 89 1011.3
20260507220231 52 288 2.0 2.0 0.00 0.00 0.00 89 1011.3
20260507215419 52 288 2.0 2.0 0.00 0.00 0.00 88 1011.3
20260507214918 52 288 1.0 2.0 0.00 0.00 0.00 88 1011.3
20260507214420 53 288 1.0 2.0 0.00 0.00 0.00 88 1011.3
20260507213916 53 288 2.0 2.0 0.00 0.00 0.00 86 1011.3
20260507213736 53 288 2.0 2.0 0.00 0.00 0.00 85 1011.3
20260507212917 54 288 0.0 1.0 0.00 0.00 0.00 86 1011.3
20260507212417 54 288 1.0 1.0 0.00 0.00 0.00 86 1011.3
20260507211918 54 288 0.0 2.0 0.00 0.00 0.00 86 1011.2
20260507211416 54 288 1.0 2.0 0.00 0.00 0.00 85 1011.1
20260507210919 54 96 1.0 2.0 0.00 0.00 0.00 83 1011.1
20260507210417 55 100 0.0 2.0 0.00 0.00 0.00 83 1011.1
20260507205917 55 116 2.0 2.0 0.00 0.00 0.00 82 1011.0
20260507205731 56 117 2.0 2.0 0.00 0.00 0.00 81 1011.0
20260507204915 56 117 1.0 1.0 0.00 0.00 0.00 80 1011.0
20260507204417 56 116 0.0 1.0 0.00 0.00 0.00 79 1011.0
20260507203915 57 116 0.0 1.0 0.00 0.00 0.00 79 1011.1
20260507203417 58 116 0.0 1.0 0.00 0.00 0.00 76 1011.1
20260507203231 58 109 0.0 1.0 0.00 0.00 0.00 76 1010.9
20260507202556 58 109 1.0 1.0 0.00 0.00 0.00 76 1010.9
20260507202520 58 109 0.0 1.0 0.00 0.00 0.00 77 1010.8
20260507201415 58 109 0.0 1.0 0.00 0.00 0.00 75 1010.9
20260507200916 59 109 0.0 0.0 0.00 0.00 0.00 75 1010.9
20260507200416 59 109 0.0 0.0 0.00 0.00 0.00 75 1010.9
20260507195917 59 109 0.0 0.0 0.00 0.00 0.00 75 1010.8
20260507195420 59 109 0.0 0.0 0.00 0.00 0.00 74 1010.8
20260507194917 59 109 0.0 0.0 0.00 0.00 0.00 74 1010.7
20260507194415 59 110 0.0 0.0 0.00 0.00 0.00 74 1010.7
20260507193917 59 110 0.0 1.0 0.00 0.00 0.00 74 1010.7
20260507193416 59 110 0.0 1.0 0.00 0.00 0.00 74 1010.7
20260507192915 59 110 0.0 0.0 0.00 0.00 0.00 74 1010.6
20260507192416 60 110 0.0 0.0 0.00 0.00 0.00 74 1010.6
20260507191914 60 110 0.0 0.0 0.00 0.00 0.00 73 1010.6
20260507191413 60 110 0.0 0.0 0.00 0.00 0.00 73 1010.6
20260507190913 60 110 0.0 0.0 0.00 0.00 0.00 73 1010.6
20260507190416 61 110 0.0 0.0 0.00 0.00 0.00 72 1010.6
20260507185912 61 110 0.0 0.0 0.00 0.00 0.00 72 1010.5
20260507185415 62 110 0.0 0.0 0.00 0.00 0.00 72 1010.6
20260507185122 63 110 0.0 0.0 0.00 0.00 0.00 69 1010.5
20260507185039 62 110 0.0 0.0 0.00 0.00 0.00 70 1010.6
20260507183913 63 110 0.0 0.0 0.00 0.00 0.00 68 1010.5
20260507183413 64 110 0.0 0.0 0.00 0.00 0.00 67 1010.4
20260507182914 64 110 0.0 1.0 0.00 0.00 0.00 65 1010.5
20260507182413 64 110 0.0 2.0 0.00 0.00 0.00 63 1010.5
20260507181914 64 110 1.0 2.0 0.00 0.00 0.00 63 1010.4
20260507181415 64 114 0.0 1.0 0.00 0.00 0.00 62 1010.4
20260507180914 65 114 0.0 2.0 0.00 0.00 0.00 62 1010.5
20260507180731 65 131 1.0 3.0 0.00 0.00 0.00 62 1010.5
20260507175911 65 97 0.0 4.0 0.00 0.00 0.00 63 1010.5
20260507175414 65 109 2.0 4.0 0.00 0.00 0.00 62 1010.5
20260507174911 65 100 2.0 5.0 0.00 0.00 0.00 60 1010.4
20260507174412 66 116 3.0 5.0 0.00 0.00 0.00 58 1010.5
20260507174238 66 114 1.0 4.0 0.00 0.00 0.00 59 1010.4
20260507173414 66 104 0.0 2.0 0.00 0.00 0.00 59 1010.5
20260507172912 65 104 1.0 2.0 0.00 0.00 0.00 57 1010.4
20260507172412 65 100 0.0 2.0 0.00 0.00 0.00 58 1010.5
20260507171910 65 107 0.0 3.0 0.00 0.00 0.00 59 1010.5
20260507171410 65 89 2.0 3.0 0.00 0.00 0.00 59 1010.5
20260507170912 65 104 0.0 3.0 0.00 0.00 0.00 58 1010.5
20260507170415 65 100 0.0 3.0 0.00 0.00 0.00 59 1010.5
20260507170228 65 90 0.0 1.0 0.00 0.00 0.00 60 1010.4
20260507165413 65 90 0.0 3.0 0.00 0.00 0.00 59 1010.4
20260507164912 65 90 2.0 4.0 0.00 0.00 0.00 58 1010.4
20260507164411 65 106 0.0 5.0 0.00 0.00 0.00 60 1010.5
20260507163918 65 78 3.0 5.0 0.00 0.00 0.00 59 1010.4
20260507163522 65 97 2.0 5.0 0.00 0.00 0.00 61 1010.4
20260507163118 65 89 0.0 5.0 0.00 0.00 0.00 60 1010.4
20260507161854 66 114 2.0 9.0 0.00 0.00 0.00 58 1010.5
20260507161848 66 113 0.0 4.0 0.00 0.00 0.00 59 1010.5
20260507160409 66 114 4.0 9.0 0.00 0.00 0.00 59 1010.5
20260507155907 66 87 4.0 9.0 0.00 0.00 0.00 59 1010.5
20260507155722 66 85 2.0 6.0 0.00 0.00 0.00 58 1010.5
20260507154907 66 117 2.0 6.0 0.00 0.00 0.00 58 1010.6
20260507154407 67 110 0.0 3.0 0.00 0.00 0.00 59 1010.6
20260507153907 67 109 1.0 5.0 0.00 0.00 0.00 58 1010.6
20260507153721 67 85 1.0 5.0 0.00 0.00 0.00 59 1010.6
20260507152908 67 86 0.0 5.0 0.00 0.00 0.00 59 1010.6
20260507152408 67 97 2.0 6.0 0.00 0.00 0.00 57 1010.5
20260507151908 67 133 2.0 7.0 0.00 0.00 0.00 58 1010.5
20260507151408 68 106 2.0 7.0 0.00 0.00 0.00 57 1010.6
20260507151217 68 92 2.0 4.0 0.00 0.00 0.00 56 1010.6
20260507150722 68 131 1.0 3.0 0.00 0.00 0.00 57 1010.6
20260507145907 68 121 0.0 6.0 0.00 0.00 0.00 57 1010.7
20260507145538 68 100 3.0 10.0 0.00 0.00 0.00 60 1010.7
20260507145507 68 111 3.0 10.0 0.00 0.00 0.00 56 1010.7
20260507144408 68 100 3.0 10.0 0.00 0.00 0.00 57 1010.6
20260507143908 68 120 4.0 7.0 0.00 0.00 0.00 54 1010.8
20260507143408 68 114 3.0 6.0 0.00 0.00 0.00 55 1010.8
20260507143214 69 68 2.0 6.0 0.00 0.00 0.00 55 1010.9
20260507142719 69 83 1.0 6.0 0.00 0.00 0.00 57 1011.0
20260507141907 69 106 4.0 6.0 0.00 0.00 0.00 54 1010.9
20260507141717 69 16 0.0 3.0 0.00 0.00 0.00 56 1010.9
20260507140909 69 92 1.0 3.0 0.00 0.00 0.00 59 1011.0
20260507140408 69 87 1.0 3.0 0.00 0.00 0.00 55 1011.1
20260507135906 69 23 0.0 2.0 0.00 0.00 0.00 55 1011.1
20260507135407 68 113 0.0 4.0 0.00 0.00 0.00 56 1011.1
20260507135218 68 96 2.0 4.0 0.00 0.00 0.00 55 1011.3
20260507134406 68 336 1.0 5.0 0.00 0.00 0.00 57 1011.3
20260507134218 68 89 3.0 5.0 0.00 0.00 0.00 54 1011.4
20260507133406 69 310 0.0 1.0 0.00 0.00 0.00 56 1011.5
20260507132906 68 125 0.0 2.0 0.00 0.00 0.00 58 1011.5
20260507132408 68 212 1.0 5.0 0.00 0.00 0.00 58 1011.5
20260507131906 67 324 0.0 7.0 0.00 0.00 0.00 59 1011.5
20260507131407 67 137 4.0 7.0 0.00 0.00 0.00 56 1011.5
20260507130905 67 113 1.0 5.0 0.00 0.00 0.00 56 1011.6
20260507130407 68 110 2.0 5.0 0.00 0.00 0.00 56 1011.9
20260507125906 68 66 1.0 9.0 0.00 0.00 0.00 57 1011.9
20260507125404 67 68 0.0 9.0 0.00 0.00 0.00 58 1012.0
20260507124905 67 131 4.0 7.0 0.00 0.00 0.00 57 1012.0
20260507124404 68 111 1.0 3.0 0.00 0.00 0.00 57 1012.1
20260507123905 68 121 0.0 2.0 0.00 0.00 0.00 56 1012.2
20260507123405 67 252 0.0 7.0 0.00 0.00 0.00 60 1012.2
20260507122905 67 58 3.0 7.0 0.00 0.00 0.00 58 1012.3
20260507122403 68 341 1.0 6.0 0.00 0.00 0.00 57 1012.2
20260507121904 67 58 0.0 6.0 0.00 0.00 0.00 61 1012.2
20260507121404 67 102 4.0 6.0 0.00 0.00 0.00 57 1012.3
20260507120916 67 117 0.0 3.0 0.00 0.00 0.00 62 1012.4
20260507120403 67 216 0.0 4.0 0.00 0.00 0.00 59 1012.4
20260507115903 66 82 0.0 9.0 0.00 0.00 0.00 64 1012.4
20260507115404 65 87 2.0 9.0 0.00 0.00 0.00 60 1012.5
20260507115214 66 76 1.0 5.0 0.00 0.00 0.00 60 1012.6
20260507114711 66 100 2.0 4.0 0.00 0.00 0.00 61 1012.8
20260507113902 66 94 0.0 6.0 0.00 0.00 0.00 59 1012.8
20260507113403 65 75 0.0 6.0 0.00 0.00 0.00 60 1012.9
20260507112902 65 106 2.0 6.0 0.00 0.00 0.00 60 1012.9
20260507112402 64 106 0.0 6.0 0.00 0.00 0.00 62 1013.0
20260507111902 64 106 4.0 9.0 0.00 0.00 0.00 57 1013.1
20260507111707 64 120 5.0 9.0 0.00 0.00 0.00 58 1013.0
20260507110916 65 100 0.0 4.0 0.00 0.00 0.00 64 1013.1
20260507110401 64 102 2.0 4.0 0.00 0.00 0.00 59 1013.1
20260507105903 65 82 0.0 3.0 0.00 0.00 0.00 64 1013.3
20260507105401 64 331 0.0 3.0 0.00 0.00 0.00 63 1013.3
20260507104901 64 114 0.0 2.0 0.00 0.00 0.00 68 1013.2
20260507104401 64 134 0.0 2.0 0.00 0.00 0.00 65 1013.3
20260507104209 64 227 1.0 3.0 0.00 0.00 0.00 62 1013.3
20260507103402 63 69 0.0 3.0 0.00 0.00 0.00 67 1013.4
20260507102901 62 118 1.0 4.0 0.00 0.00 0.00 69 1013.4
20260507102707 62 94 1.0 4.0 0.00 0.00 0.00 66 1013.4
20260507101903 62 109 2.0 5.0 0.00 0.00 0.00 65 1013.4
20260507101401 62 111 3.0 5.0 0.00 0.00 0.00 62 1013.4
20260507100901 62 133 1.0 6.0 0.00 0.00 0.00 64 1013.4
20260507100400 62 96 2.0 6.0 0.00 0.00 0.00 62 1013.5
20260507095900 62 92 4.0 5.0 0.00 0.00 0.00 63 1013.5
20260507095401 63 116 3.0 5.0 0.00 0.00 0.00 65 1013.5
20260507094901 62 80 0.0 4.0 0.00 0.00 0.00 71 1013.5
20260507094709 62 116 3.0 6.0 0.00 0.00 0.00 66 1013.5
20260507093901 62 69 1.0 6.0 0.00 0.00 0.00 68 1013.6
20260507093400 62 96 2.0 5.0 0.00 0.00 0.00 68 1013.6
20260507092859 62 71 1.0 4.0 0.00 0.00 0.00 68 1013.5
20260507092400 61 121 2.0 5.0 0.00 0.00 0.00 68 1013.5
20260507091859 62 118 1.0 5.0 0.00 0.00 0.00 73 1013.6
20260507091401 61 87 1.0 4.0 0.00 0.00 0.00 72 1013.6
20260507090955 60 100 2.0 5.0 0.00 0.00 0.00 71 1013.7
20260507085859 60 69 1.0 6.0 0.00 0.00 0.00 76 1013.6
20260507085400 58 114 1.0 6.0 0.00 0.00 0.00 75 1013.5
20260507085205 58 97 3.0 5.0 0.00 0.00 0.00 75 1013.6
20260507084358 58 86 1.0 4.0 0.00 0.00 0.00 76 1013.6
20260507083859 58 90 2.0 4.0 0.00 0.00 0.00 74 1013.7
20260507083358 58 90 1.0 6.0 0.00 0.00 0.00 76 1013.7
20260507082859 58 116 1.0 6.0 0.00 0.00 0.00 76 1013.7
20260507082358 58 107 3.0 4.0 0.00 0.00 0.00 79 1013.7
20260507081859 58 92 1.0 4.0 0.00 0.00 0.00 80 1013.6
20260507081359 57 97 1.0 4.0 0.00 0.00 0.00 81 1013.6
20260507080859 57 111 3.0 4.0 0.00 0.00 0.00 79 1013.7
20260507080357 58 92 1.0 3.0 0.00 0.00 0.00 81 1013.7
20260507080203 57 106 1.0 3.0 0.00 0.00 0.00 79 1013.7
20260507075358 57 89 1.0 3.0 0.00 0.00 0.00 81 1013.7
20260507074857 57 172 0.0 3.0 0.00 0.00 0.00 82 1013.7
20260507074358 57 87 1.0 4.0 0.00 0.00 0.00 81 1013.7
20260507073856 56 107 2.0 5.0 0.00 0.00 0.00 84 1013.6
20260507073358 56 94 2.0 5.0 0.00 0.00 0.00 82 1013.6
20260507072857 56 68 1.0 3.0 0.00 0.00 0.00 85 1013.5
20260507072356 56 87 0.0 2.0 0.00 0.00 0.00 87 1013.5
20260507071857 55 252 0.0 4.0 0.00 0.00 0.00 90 1013.5
20260507071356 54 243 0.0 4.0 0.00 0.00 0.00 89 1013.5
20260507070859 54 76 1.0 3.0 0.00 0.00 0.00 90 1013.6
20260507070358 54 90 0.0 2.0 0.00 0.00 0.00 94 1013.6
20260507065857 53 80 0.0 1.0 0.00 0.00 0.00 96 1013.6
20260507065355 52 75 0.0 1.0 0.00 0.00 0.00 96 1013.6
20260507064857 51 227 0.0 1.0 0.00 0.00 0.00 95 1013.6
20260507064706 52 217 0.0 2.0 0.00 0.00 0.00 96 1013.6
20260507064203 52 83 0.0 2.0 0.00 0.00 0.00 97 1013.7
20260507063658 51 149 0.0 1.0 0.00 0.00 0.00 97 1013.7
20260507063205 50 149 0.0 1.0 0.00 0.00 0.00 97 1013.6
20260507062355 49 200 0.0 1.0 0.00 0.00 0.00 97 1013.6
20260507062322 47 351 0.0 0.0 0.00 0.00 0.00 98 1013.5
20260507062316 49 96 0.0 1.0 0.00 0.00 0.00 98 1013.5
20260507060855 47 351 0.0 0.0 0.00 0.00 0.00 98 1013.6
20260507060356 46 351 0.0 0.0 0.00 0.00 0.00 97 1013.6
20260507055855 45 351 0.0 1.0 0.00 0.00 0.00 97 1013.6
20260507055705 45 351 0.0 1.0 0.00 0.00 0.00 97 1013.5
20260507055013 45 351 0.0 0.0 0.00 0.00 0.00 97 1013.5
20260507054945 45 351 0.0 0.0 0.00 0.00 0.00 97 1013.5
20260507053854 44 353 0.0 0.0 0.00 0.00 0.00 97 1013.5
20260507053700 44 351 0.0 0.0 0.00 0.00 0.00 97 1013.6
20260507052854 44 353 0.0 0.0 0.00 0.00 0.00 97 1013.4
20260507052354 44 353 0.0 1.0 0.00 0.00 0.00 97 1013.4
20260507051854 44 353 0.0 1.0 0.00 0.00 0.00 97 1013.3
20260507051354 43 295 0.0 0.0 0.00 0.00 0.00 97 1013.3
20260507050855 43 295 0.0 0.0 0.00 0.00 0.00 97 1013.3
20260507050353 43 295 0.0 0.0 0.00 0.00 0.00 96 1013.2
20260507045853 43 295 0.0 0.0 0.00 0.00 0.00 96 1013.2
20260507045354 43 295 0.0 0.0 0.00 0.00 0.00 96 1013.1
20260507044853 43 295 0.0 0.0 0.00 0.00 0.00 96 1013.1
20260507044355 44 295 0.0 0.0 0.00 0.00 0.00 97 1012.9
20260507043855 44 295 0.0 0.0 0.00 0.00 0.00 97 1012.9
20260507043352 44 295 0.0 0.0 0.00 0.00 0.00 96 1012.9
20260507042853 44 295 0.0 0.0 0.00 0.00 0.00 96 1012.9
20260507042703 44 295 0.0 1.0 0.00 0.00 0.00 97 1013.0
20260507042011 43 295 1.0 1.0 0.00 0.00 0.00 96 1013.1
20260507041944 43 295 1.0 1.0 0.00 0.00 0.00 96 1013.0
20260507040853 44 295 0.0 0.0 0.00 0.00 0.00 96 1013.1
20260507040405 44 295 0.0 0.0 0.00 0.00 0.00 96 1013.0
20260507035853 44 295 0.0 0.0 0.00 0.00 0.00 96 1013.1
20260507035349 44 295 0.0 0.0 0.00 0.00 0.00 96 1013.2
20260507034851 44 295 0.0 0.0 0.00 0.00 0.00 96 1013.1
20260507034703 44 295 0.0 0.0 0.00 0.00 0.00 96 1013.2
20260507033905 44 295 0.0 1.0 0.00 0.00 0.00 96 1013.2
20260507033355 44 295 0.0 1.0 0.00 0.00 0.00 96 1013.2
20260507032851 45 295 0.0 0.0 0.00 0.00 0.00 96 1013.2
20260507032352 45 295 0.0 0.0 0.00 0.00 0.00 96 1013.2
20260507031851 45 295 0.0 0.0 0.00 0.00 0.00 96 1013.2
20260507031352 45 295 0.0 1.0 0.00 0.00 0.00 96 1013.2
20260507030850 45 295 0.0 1.0 0.00 0.01 0.00 96 1013.3
20260507030351 45 295 0.0 1.0 0.00 0.01 0.00 96 1013.2
20260507030016 45 295 0.0 1.0 0.00 0.01 0.00 96 1013.3
20260507025947 45 295 0.0 1.0 0.00 0.01 0.00 96 1013.3
20260507024850 45 295 0.0 1.0 0.00 0.01 0.00 96 1013.2
20260507024350 45 295 0.0 0.0 0.00 0.01 0.00 96 1013.3
20260507023853 45 295 0.0 0.0 0.00 0.01 0.00 96 1013.2
20260507023351 45 295 0.0 0.0 0.00 0.01 0.00 96 1013.2
20260507022848 45 295 0.0 0.0 0.00 0.01 0.00 96 1013.2
20260507022350 45 295 0.0 0.0 0.00 0.01 0.00 96 1013.3
20260507021849 45 295 0.0 0.0 0.00 0.01 0.00 96 1013.3
20260507021350 45 295 0.0 0.0 0.00 0.01 0.00 96 1013.3
20260507020850 45 295 0.0 0.0 0.00 0.01 0.00 95 1013.4
20260507020350 45 295 0.0 0.0 0.00 0.01 0.00 95 1013.4
20260507015849 45 295 0.0 0.0 0.00 0.01 0.00 95 1013.4
20260507015659 46 295 0.0 0.0 0.00 0.01 0.00 95 1013.4
20260507014849 46 295 0.0 0.0 0.00 0.01 0.00 95 1013.4
20260507014350 46 295 0.0 0.0 0.00 0.01 0.00 95 1013.4
20260507013848 46 295 0.0 1.0 0.00 0.01 0.00 95 1013.5
20260507013349 46 295 0.0 1.0 0.00 0.01 0.00 95 1013.5